Terminal Aerodrome Forecast
Issued by NWS

Home | Current Version | Previous Version | Text Only | Print | Product List | Glossary On
Versions: 1 2 3 4 5 6 7 8 9 10 11 12 13 14 15 16 17 18 19 20 21 22
626
FTUS43 KGRR 100535
TAFJXN
TAF
KJXN 100535Z 1006/1106 25010KT 6SM -SN OVC050
      TEMPO 1006/1009 4SM -SN BKN020
     FM101400 26009KT 3SM -SN OVC020
     FM102100 23006KT P6SM OVC040=

USA.gov is the U.S. government's official web portal to all federal, state and local government web resources and services.